Terminal Aerodrome Forecast
Issued by NWS Midland/Odessa, TX

Home | Current Version | Previous Version | Text Only | Print | Product List | Glossary On
Versions: 1 2 3 4 5 6 7 8 9 10 11 12 13 14 15 16 17
000
FTUS44 KMAF 292300
TAFMAF
TAF
KMAF 292324Z 3000/3024 05016G21KT P6SM BKN110
     FM300600 06014KT P6SM SCT070 OVC100
     FM301800 09012KT P6SM -RA BKN035=

USA.gov is the U.S. government's official web portal to all federal, state and local government web resources and services.